087  
ASUS44 KMAF 281010  
RWRMAF  
MIDLAND AREA WEATHER ROUNDUP  
NATIONAL WEATHER SERVICE MIDLAND TX  
500 AM CDT SUN MAY 28 2017  
   
..IN SOUTHWEST TEXAS AND SOUTHEAST NEW MEXICO
 
 
 
CITY SKY/WX TMP DP RH WIND PRES REMARKS
 
ALPINE CLEAR 68 46 45 SW7 30.08S  
ANDREWS FAIR 64 50 61 NE20G28 30.03S  
ARTESIA PTCLDY 61 45 55 NW16 30.17R  
BIG SPRING PTCLDY 71 59 66 NE23G32 29.99R  
CARLSBAD PTCLDY 64 49 57 N21G30 30.11R  
DRYDEN N/A 74 70 87 N6 29.84S  
FORT STOCKTON CLEAR 74 60 61 S8 29.90F  
GUAD PASS CLOUDY 72 14 11 MISG 30.12F  
HOBBS PTCLDY 59 45 58 NE18 30.10R  
MARFA PTCLDY 65 31 28 NW10 30.07F  
MIDLAND AIRPK PTCLDY 73 59 61 NE17G23 29.99R  
MIDLAND INTL CLOUDY 73 58 59 NE22G32 29.97R  
ODESSA CLOUDY 73 47 39 NE22G29 29.98R  
PECOS CLOUDY 75 29 18 N25G33 29.93R  
PRESIDIO FAIR 83 33 17 N8 29.90F  
SEMINOLE PTCLDY 59 47 63 NE15G28 30.06S  
SNYDER CLEAR 65 52 61 N17G25 30.00R  
WINK CLOUDY 73 55 53 N26G33 29.96R  

   
..OTHER STATIONS IN TEXAS
 
 
 
CITY SKY/WX TMP DP RH WIND PRES REMARKS
 
ABILENE CLEAR 72 61 68 N18G31 29.93R  
AMARILLO CLEAR 52 47 83 NW12 30.13R  
AUSTIN CLOUDY 77 74 90 CALM 29.82R  
BROWNSVILLE CLOUDY 83 78 85 S12 29.82S  
CORPUS CHRISTI MOCLDY 79 77 94 S12 29.77F  
DALLAS FTW TSTM 75 67 76 E10 29.81R  
DEL RIO CLEAR 78 73 84 E10 29.77F  
EL PASO MOCLDY 68 14 12 E9 30.01R  
HOUSTON INT MOCLDY 80 74 81 S8 29.82F  
LUBBOCK CLEAR 58 46 64 N15 30.08R  
SAN ANGELO CLEAR 72 67 84 S6 29.84R  
SAN ANTONIO CLOUDY 75 72 90 SW5 29.82S  
WACO CLEAR 75 72 90 S14 29.80R  
WICHITA FALLS NOT AVBL  

   
..OTHER LOCATIONS IN NEW MEXICO
 
 
 
CITY SKY/WX TMP DP RH WIND PRES REMARKS
 
ALAMOGORDO PTCLDY 66 10 11 SE3 30.01S  
ALBUQUERQUE PTCLDY 61 38 42 E16 30.16S  
CANNON AFB CLEAR 53 43 71 N18 30.14S  
CLOVIS CLEAR 52 39 62 N15 30.14R  
HOLLOMAN AFB CLOUDY 58 11 15 NW10 30.04S  
ROSWELL CLOUDY 60 42 51 N14 30.15R  
RUIDOSO CLEAR 46 39 76 SW12 30.28R  
SANTA FE PTCLDY 49 41 74 S6 30.24R  
TRUTH OR CONSE CLEAR 65 13 13 N15G23 30.09R  
TUCUMCARI CLEAR 50 40 68 N7 30.15S  

 
 
 
CLICK HERE TO GO TO PREVIOUS BULLETINS.

The Nexlab TX Page
The Nexlab NM Page Main Text Page